Location: ?????????
(53.2086°N, 54.0693°E)
Time: 20:01:47
(UTC+00:00)

COSMOS 2428 - Pass Details

Date: 08 December 2019
Orbit: 844 x 858 km, 70.9° (Epoch: 19 January)

Event Time Altitude Azimuth Distance (km) Brightness Sun altitude
Rises 15:24:18 0° 246° (WSW) 3,402 6.9 -28.2°
Reaches altitude 10° 15:27:00 10° 256° (WSW) 2,471 6.0 -28.6°
Maximum altitude 15:32:04 33° 319° (NW) 1,412 4.1 -29.4°
Enters shadow 15:34:05 26° 356° (N) 1,629 4.2 -29.7°
